Location: Unspecified
(22.6800°N, 112.2000°E)
Time: 00:32:11
(UTC+08:00)

Tiros 1 despin weight - Pass Details

Date: 02 August 2021
Orbit: 593 x 641 km, 48.2° (Epoch: 19 September)

Event Time Altitude Azimuth Distance (km) Brightness Sun altitude
Rises 21:13:48 0° 307° (NW) 2,916 ? -26.0°
Reaches altitude 10° 21:16:14 10° 300° (WNW) 2,000 ? -26.4°
Enters shadow 21:20:08 40° 245° (WSW) 911 ? -27.2°
